643  
ASUS44 KMEG 192110  
RWRMEG  
MEMPHIS CWA HOURLY WEATHER ROUNDUP  
NATIONAL WEATHER SERVICE MEMPHIS TN  
400 PM CDT FRI JUL 19 2019  
   
..WEST TENNESSEE
 
 
 
CITY SKY/WX TMP DP RH WIND PRES REMARKS
 
MEMPHIS INTL FAIR 91 76 61 SW9 30.01S HX 103  
NWS MEMPHIS N/A N/A N/A N/A MISG N/A  
JACKSON FAIR 92 75 57 W7 30.02F HX 103  
COVINGTON MOSUNNY 90 77 66 SW6G12 29.99F HX 102  
SOMERVILLE MOSUNNY 93 77 59 SW7 30.00F HX 107  
BOLIVAR MOSUNNY 91 75 59 SW6 30.01S HX 102  
LEXINGTON SUNNY 90 77 66 VRB5 30.00F HX 102  
SELMER MOSUNNY 90 77 66 VRB6 30.02F HX 102  
DYERSBURG FAIR 91 77 63 SW7 30.00F HX 104  
UNION CITY SUNNY 91 75 59 SW8 29.97F HX 102  
PARIS SUNNY 91 75 59 SW8 30.00F HX 102  
HUNTINGDON SUNNY 91 75 59 SW9 30.00F HX 102  
 
   
..EASTERN ARKANSAS
 
 
 
CITY SKY/WX TMP DP RH WIND PRES REMARKS
 
JONESBORO FAIR 92 75 57 SW13 29.98S HX 103  
WEST MEMPHIS FAIR 91 79 67 S12 29.98F HX 107  
BATESVILLE MOSUNNY 92 75 57 S9 29.98 HX 103  
NEWPORT FAIR 92 76 59 S13 29.97F HX 104  
WALNUT RIDGE PTSUNNY 93 80 65 S13 29.96F HX 112  
BLYTHEVILLE FAIR 91 75 59 SW12 29.99F HX 101  
SEARCY FAIR 93 79 63 SW12G17 29.98S HX 110  
STUTTGART FAIR 93 74 53 S10 29.99F HX 103  
PINE BLUFF PTSUNNY 91 74 57 S10 29.99F HX 100  
MONTICELLO FAIR 93 74 53 S10 30.00F HX 103  
 
   
..NORTH MISSISSIPPI
 
 
 
CITY SKY/WX TMP DP RH WIND PRES REMARKS
 
TUPELO FAIR 92 75 57 S7 30.02F HX 103  
OXFORD FAIR 91 73 55 W8 30.03F HX 100  
BATESVILLE PTSUNNY 91 77 62 W6G13 30.01F HX 105  
OLIVE BRANCH PTSUNNY 91 73 55 SW12 30.01F HX 100  
TUNICA N/A 91 77 62 S6 30.01F HX 105  
CLARKSDALE SUNNY 93 77 59 S7G14 30.01F HX 107  
GREENWOOD FAIR 91 75 59 SW7 30.02F HX 101  
COLUMBUS FAIR 94 76 56 CALM 30.01F HX 106  
STARKVILLE FAIR 90 77 66 CALM 30.02F HX 102  
GOLDEN TRIANGL FAIR 92 76 59 SW5 30.02F HX 104  
 
   
..SOUTHEAST MISSOURI
 
 
 
CITY SKY/WX TMP DP RH WIND PRES REMARKS
 
KENNETT FAIR 93 77 59 SW12 29.96F HX 107  
MALDEN FAIR 91 75 59 MISG 29.97F HX 102  
WEST PLAINS SUNNY 91 74 57 SW9 30.00F HX 100  
POPLAR BLUFF FAIR 91 79 67 S9G20 29.95F HX 107  
CAPE GIRARDEAU FAIR 91 75 59 S14 29.95F HX 101  
 
   
..NORTHWEST ALABAMA
 
 
 
CITY SKY/WX TMP DP RH WIND PRES REMARKS
 
MUSCLE SHOALS FAIR 92 73 53 W5 30.03F HX 100  
 
   
..MIDDLE TENNESSEE
 
 
 
CITY SKY/WX TMP DP RH WIND PRES REMARKS
 
NASHVILLE PTSUNNY 93 70 46 VRB5 30.02S HX 99  
CLARKSVILLE FAIR 92 76 59 S8 30.00F HX 104  
COLUMBIA MOSUNNY 90 75 62 VRB6 30.01F HX 100  
LAWRENCEBURG PTCLDY 88 75 66 W7 30.04F HX 97  
LEWISBURG PTCLDY 88 75 66 SW6 30.02F HX 97  
 
   
..WESTERN KENTUCKY
 
 
 
CITY SKY/WX TMP DP RH WIND PRES REMARKS
 
PADUCAH FAIR 91 75 59 SW9G18 29.97F HX 101  
FORT CAMPBELL FAIR 91 75 58 SW10 30.00S HX 102  
 
   
..CENTRAL ARKANSAS
 
 
 
CITY SKY/WX TMP DP RH WIND PRES REMARKS
 
LITTLE ROCK MOSUNNY 92 74 55 S12 29.97F HX 101  
 
SKY/WX REPORTED AS FAIR MEANS FEW OR NO CLOUDS BELOW  
12 THOUSAND FEET.  
 
 
 
CLICK HERE TO GO TO PREVIOUS BULLETINS.

The Nexlab TN Page
The Nexlab MS Page
The Nexlab AR Page Main Text Page